Time,TemperatureF,DewpointF,PressureIn,WindDirection,WindDirectionDegrees,WindSpeedMPH,WindSpeedGustMPH,Humidity,HourlyPrecipIn,Conditions,Clouds,dailyrainin,SoftwareType,DateUTC
2013-08-11 00:02:00,53.0,52.0,-100.00,East,100,1.0,2.0,93,0.00,,,0.00,,2013-08-11 05:02:00,
2013-08-11 00:24:00,52.0,50.0,-100.00,ENE,75,1.0,1.0,94,0.00,,,0.00,,2013-08-11 05:24:00,
2013-08-11 00:35:00,53.0,52.0,-100.00,ENE,70,0.0,1.0,94,0.00,,,0.00,,2013-08-11 05:35:00,
2013-08-11 00:54:00,53.0,52.0,-100.00,ENE,60,0.0,0.0,94,0.00,,,0.00,,2013-08-11 05:54:00,
2013-08-11 01:25:00,51.0,50.0,-100.00,ENE,65,0.0,1.0,95,0.00,,,0.00,,2013-08-11 06:25:00,
2013-08-11 01:55:00,51.0,50.0,-100.00,NE,55,0.0,0.0,95,0.00,,,0.00,,2013-08-11 06:55:00,
2013-08-11 02:06:00,51.0,50.0,-100.00,ENE,75,1.0,1.0,95,0.00,,,0.00,,2013-08-11 07:06:00,
2013-08-11 02:14:00,50.0,50.0,-100.00,ESE,110,0.0,1.0,95,0.00,,,0.00,,2013-08-11 07:14:00,
2013-08-11 02:24:00,50.0,50.0,-100.00,South,175,0.0,1.0,95,0.00,,,0.00,,2013-08-11 07:24:00,
2013-08-11 02:54:00,51.0,50.0,-100.00,SE,125,1.0,2.0,95,0.00,,,0.00,,2013-08-11 07:54:00,
2013-08-11 03:08:00,51.0,50.0,-100.00,East,90,2.0,2.0,95,0.00,,,0.00,,2013-08-11 08:08:00,
2013-08-11 03:25:00,53.0,52.0,-100.00,ENE,70,1.0,1.0,95,0.00,,,0.00,,2013-08-11 08:25:00,
2013-08-11 04:07:00,55.0,54.0,-100.00,ENE,70,0.0,1.0,95,0.00,,,0.00,,2013-08-11 09:07:00,
2013-08-11 04:27:00,54.0,54.0,-100.00,North,0,2.0,2.0,95,0.00,,,0.00,,2013-08-11 09:27:00,
2013-08-11 04:43:00,54.0,54.0,-100.00,North,350,1.0,2.0,95,0.00,,,0.00,,2013-08-11 09:43:00,
2013-08-11 05:27:00,55.0,54.0,-100.00,ENE,60,0.0,2.0,95,0.00,,,0.00,,2013-08-11 10:27:00,
2013-08-11 05:34:00,55.0,54.0,-100.00,ENE,60,0.0,2.0,95,0.00,,,0.00,,2013-08-11 10:34:00,
2013-08-11 05:45:00,55.0,54.0,-100.00,SE,130,0.0,1.0,95,0.00,,,0.00,,2013-08-11 10:45:00,
2013-08-11 05:55:00,55.0,54.0,-100.00,SE,130,0.0,1.0,95,0.00,,,0.00,,2013-08-11 10:55:00,
2013-08-11 06:06:00,55.0,54.0,-100.00,SE,130,0.0,1.0,95,0.00,,,0.00,,2013-08-11 11:06:00,
2013-08-11 06:14:00,55.0,54.0,-100.00,East,80,1.0,2.0,95,0.00,,,0.00,,2013-08-11 11:14:00,
2013-08-11 07:15:00,53.0,52.0,-100.00,West,260,1.0,2.0,95,0.00,,,0.00,,2013-08-11 12:15:00,
2013-08-11 07:54:00,59.0,57.0,-100.00,NW,315,2.0,4.0,95,0.00,,,0.00,,2013-08-11 12:54:00,
2013-08-11 08:45:00,64.0,55.0,-100.00,WNW,300,3.0,6.0,74,0.00,,,0.00,,2013-08-11 13:45:00,
2013-08-11 10:24:00,72.0,55.0,-100.00,North,0,2.0,6.0,54,0.00,,,0.00,,2013-08-11 15:24:00,
2013-08-11 11:13:00,72.0,54.0,-100.00,North,350,4.0,9.0,51,0.00,,,0.00,,2013-08-11 16:13:00,
2013-08-11 11:27:00,73.0,52.0,-100.00,West,275,4.0,9.0,48,0.00,,,0.00,,2013-08-11 16:27:00,
2013-08-11 11:38:00,74.0,52.0,-100.00,West,270,6.0,9.0,46,0.00,,,0.00,,2013-08-11 16:38:00,
2013-08-11 12:13:00,74.0,50.0,-100.00,West,265,9.0,11.0,43,0.00,,,0.00,,2013-08-11 17:13:00,
2013-08-11 12:25:00,74.0,50.0,-100.00,NW,315,5.0,10.0,42,0.00,,,0.00,,2013-08-11 17:25:00,
2013-08-11 13:17:00,73.0,52.0,-100.00,NW,315,4.0,7.0,46,0.00,,,0.00,,2013-08-11 18:17:00,
2013-08-11 13:25:00,75.0,52.0,-100.00,West,280,2.0,9.0,43,0.00,,,0.00,,2013-08-11 18:25:00,
2013-08-11 13:54:00,73.0,52.0,-100.00,NW,305,6.0,12.0,46,0.00,,,0.00,,2013-08-11 18:54:00,
2013-08-11 14:06:00,71.0,52.0,-100.00,NNW,340,3.0,9.0,50,0.00,,,0.00,,2013-08-11 19:06:00,
2013-08-11 14:15:00,71.0,52.0,-100.00,NNW,330,2.0,6.0,50,0.00,,,0.00,,2013-08-11 19:15:00,
2013-08-11 14:25:00,72.0,52.0,-100.00,WNW,290,3.0,6.0,50,0.00,,,0.00,,2013-08-11 19:25:00,
2013-08-11 14:33:00,75.0,54.0,-100.00,West,265,6.0,9.0,46,0.00,,,0.00,,2013-08-11 19:33:00,
2013-08-11 14:56:00,77.0,52.0,-100.00,WNW,290,4.0,9.0,41,0.00,,,0.00,,2013-08-11 19:56:00,
2013-08-11 15:27:00,78.0,52.0,-100.00,NW,320,3.0,9.0,40,0.00,,,0.00,,2013-08-11 20:27:00,
2013-08-11 16:07:00,74.0,52.0,-100.00,NNW,340,3.0,11.0,46,0.00,,,0.00,,2013-08-11 21:07:00,
2013-08-11 16:13:00,76.0,52.0,-100.00,WNW,290,7.0,10.0,43,0.00,,,0.00,,2013-08-11 21:13:00,
2013-08-11 16:27:00,78.0,52.0,-100.00,WNW,290,7.0,12.0,40,0.00,,,0.00,,2013-08-11 21:27:00,
2013-08-11 16:54:00,76.0,52.0,-100.00,North,0,6.0,12.0,42,0.00,,,0.00,,2013-08-11 21:54:00,
2013-08-11 17:14:00,76.0,52.0,-100.00,NW,310,6.0,12.0,42,0.00,,,0.00,,2013-08-11 22:14:00,
2013-08-11 17:25:00,75.0,52.0,-100.00,WNW,290,6.0,9.0,43,0.00,,,0.00,,2013-08-11 22:25:00,
2013-08-11 18:15:00,74.0,52.0,-100.00,North,350,6.0,9.0,46,0.00,,,0.00,,2013-08-11 23:15:00,
2013-08-11 18:27:00,73.0,52.0,-100.00,NNE,25,2.0,9.0,47,0.00,,,0.00,,2013-08-11 23:27:00,
2013-08-11 19:04:00,73.0,52.0,-100.00,NW,310,4.0,6.0,45,0.00,,,0.00,,2013-08-12 00:04:00,
2013-08-11 20:14:00,69.0,52.0,-100.00,NNW,330,1.0,4.0,52,0.00,,,0.00,,2013-08-12 01:14:00,
2013-08-11 20:24:00,68.0,52.0,-100.00,NNW,340,2.0,4.0,54,0.00,,,0.00,,2013-08-12 01:24:00,
2013-08-11 21:14:00,62.0,55.0,-100.00,WNW,300,0.0,0.0,76,0.00,,,0.00,,2013-08-12 02:14:00,
2013-08-11 21:23:00,61.0,54.0,-100.00,NE,45,0.0,2.0,79,0.00,,,0.00,,2013-08-12 02:23:00,
2013-08-11 21:35:00,60.0,55.0,-100.00,North,0,1.0,2.0,82,0.00,,,0.00,,2013-08-12 02:35:00,
2013-08-11 22:06:00,58.0,55.0,-100.00,NW,305,0.0,1.0,87,0.00,,,0.00,,2013-08-12 03:06:00,
2013-08-11 22:14:00,57.0,54.0,-100.00,North,0,1.0,1.0,87,0.00,,,0.00,,2013-08-12 03:14:00,
2013-08-11 22:25:00,58.0,55.0,-100.00,North,0,1.0,2.0,89,0.00,,,0.00,,2013-08-12 03:25:00,
2013-08-11 23:22:00,54.0,52.0,-100.00,West,260,0.0,1.0,93,0.00,,,0.00,,2013-08-12 04:22:00,
2013-08-11 23:33:00,54.0,52.0,-100.00,West,260,0.0,0.0,93,0.00,,,0.00,,2013-08-12 04:33:00,
2013-08-11 23:52:00,54.0,52.0,-100.00,North,5,1.0,1.0,94,0.00,,,0.00,,2013-08-12 04:52:00,